Location: Banska Bystrica
(48.7330°N, 19.1500°E)
Time: 00:02:05
(UTC+02:00)

ISS - Pass Details

Date: 26 March 2019
Orbit: 408 x 410 km, 51.6° (Epoch: 22 April)

Event Time Altitude Azimuth Distance (km) Brightness Sun altitude
Rises 21:00:32 0° 280° (W) 2,337 0.9 -27.3°
Reaches altitude 10° 21:02:40 10° 286° (WNW) 1,475 -0.2 -27.5°
Enters shadow 21:03:47 19° 294° (WNW) 1,043 -1.1 -27.7°
